{"data":{"norad_id":60387,"epoch":"2026-05-25T03:25:09.993792Z","epoch_age_seconds":73026,"freshness":"FRESH","line1":"1 60387U 24140J   26145.14247678  .00000092  00000+0  12351-3 0  9997","line2":"2 60387  88.9718 282.3856 0018257  87.9908 272.3334 13.51010913 89392","mean_motion":13.51010913,"eccentricity":0.0018257,"inclination_deg":88.9718,"raan_deg":282.3856,"arg_perigee_deg":87.9908,"mean_anomaly_deg":272.3334,"bstar":0.00012351,"rev_number":8939,"period_min":106.58685182656,"perigee_km":1054.9460829344,"apogee_km":1082.1368847503,"semimajor_km":7446.6784838423,"source":"CELESTRAK","updated_at":"2026-05-25T13:38:02.041250Z"}}